Location: Saint Peter Port
(49.4500°N, 2.5330°W)
Time: 19:09:04
(UTC+00:00)

Cosmos 2242 Rocket - Visible Passes

Search period start: 27 March 2015 00:00
Search period end: 06 April 2015 01:00
Orbit: 618 x 654 km, 82.5° (Epoch: 26 March)

Date Brightness Start Highest point End Pass type
(mag) Time Alt. Az. Time Alt. Az. Time Alt. Az.
27 Mar 4.3 20:56:34 39° NE 20:56:34 39° NE 20:59:47 10° NNE visible
27 Mar 5.9 22:34:02 21° WNW 22:34:03 21° WNW 22:37:21 10° NNW visible
28 Mar 5.6 19:40:55 12° ENE 19:40:55 12° ENE 19:42:07 10° ENE visible
28 Mar 3.6 21:18:22 79° NNW 21:18:22 79° NNW 21:22:35 10° N visible
28 Mar 6.5 22:55:49 10° WNW 22:57:13 11° WNW 22:58:37 10° NW visible
29 Mar 4.8 21:02:37 22° E 21:02:53 22° E 21:06:20 10° NE visible
29 Mar 4.6 22:40:04 38° WSW 22:40:54 43° WNW 22:45:08 10° N visible
30 Mar 4.0 21:24:09 33° SE 21:25:24 41° E 21:29:35 10° NNE visible
30 Mar 5.7 23:01:35 16° WSW 23:03:51 23° WNW 23:07:23 10° NNW visible
31 Mar 3.4 21:45:29 25° S 21:48:00 82° E 21:52:27 10° NNE visible
31 Mar 6.5 23:24:44 10° W 23:26:57 13° WNW 23:29:01 10° NNW visible
01 Apr 5.0 20:29:48 10° SE 20:32:50 19° E 20:35:59 10° NE visible
01 Apr 4.4 22:06:31 11° SSW 22:10:45 50° WNW 22:15:04 10° N visible
02 Apr 4.2 20:51:18 10° SSE 20:55:18 35° E 20:59:21 10° NNE visible
02 Apr 5.6 22:29:51 10° SW 22:33:39 27° WNW 22:37:24 10° N visible
03 Apr 3.5 21:13:29 10° S 21:17:53 70° E 21:22:17 10° NNE visible
03 Apr 6.5 22:54:02 10° W 22:56:43 15° WNW 22:59:15 10° NNW visible
04 Apr 4.1 21:36:13 10° SSW 21:40:35 59° WNW 21:44:58 10° N visible
05 Apr 4.4 20:21:23 10° SSE 20:25:13 30° E 20:29:06 10° NNE visible
05 Apr 5.4 21:59:29 10° SW 22:03:27 31° WNW 22:07:23 10° N visible
